Location: Austin, TX
(30.3000°N, 97.7500°W)
Time: 21:30:55
(UTC-05:00)

Cosmos 1666 - Visible Passes

Search period start: 02 September 2015 00:00
Search period end: 12 September 2015 00:00
Orbit: 507 x 533 km, 82.5° (Epoch: 02 September)

Date Brightness Start Highest point End Pass type
(mag) Time Alt. Az. Time Alt. Az. Time Alt. Az.
02 Sep 4.5 21:28:00 20° NE 21:28:00 20° NE 21:29:28 10° NNE visible
03 Sep 4.0 21:13:28 25° NE 21:13:28 25° NE 21:15:36 10° NNE visible
03 Sep 6.0 22:48:29 11° WNW 22:48:29 11° WNW 22:49:14 10° WNW visible
04 Sep 3.7 20:58:37 26° E 20:58:37 26° E 21:01:43 10° NNE visible
04 Sep 5.7 22:33:37 13° W 22:34:17 14° WNW 22:36:11 10° NW visible
05 Sep 3.9 20:43:15 18° ESE 20:44:41 22° E 20:47:46 10° NE visible
05 Sep 5.6 22:18:12 11° WSW 22:20:29 16° WNW 22:22:53 10° NW visible
06 Sep 4.1 20:28:18 10° SE 20:30:58 19° E 20:33:46 10° NE visible
06 Sep 5.4 22:03:49 10° SW 22:06:43 19° WNW 22:09:28 10° NNW visible
07 Sep 4.3 20:15:00 10° SE 20:17:15 16° E 20:19:41 10° NE visible
07 Sep 5.1 21:49:46 10° SW 21:52:56 23° WNW 21:55:59 10° NNW visible
08 Sep 4.8 21:35:47 10° SW 21:39:08 27° W 21:42:26 10° NNW visible
09 Sep 4.5 21:21:50 10° SW 21:25:22 32° W 21:28:50 10° NNW visible
10 Sep 4.2 21:07:56 10° SSW 21:11:36 39° W 21:15:12 10° NNW visible
11 Sep 3.8 20:54:04 10° SSW 20:57:49 47° W 21:01:32 10° N visible
